Regional Weather Roundup
Issued by NWS

Home | Current Version | Previous Version | Text Only | Print | Product List | Glossary On
Versions: 1 2 3 4 5 6 7 8 9 10 11 12 13 14 15 16 17 18 19 20 21 22 23 24 25 26 27 28 29 30 31 32 33 34 35 36 37 38 39 40 41 42 43 44 45 46 47 48 49 50
000
ASUS44 KEWX 021703
RWRTX
SOUTH TEXAS REGIONAL WEATHER ROUNDUP
NATIONAL WEATHER SERVICE AUSTIN/SAN ANTONIO TX
1200 PM CDT TUE JUN 02 2015

NOTE: "FAIR" INDICATED FEW OR NO CLOUDS BELOW 12,000 FEET WITH NO
SIGNIFICANT WEATHER AND/OR OBSTRUCTIONS TO VISIBILITY.

* - THESE STATIONS ARE NOT NWS OR FAA STATIONS...AND ARE NOT SUBJECT
    TO NWS AND FAA QUALITY CONTROL.

TXZ171-172-183>190-021800-
TEXAS HILL COUNTRY AND EDWARDS PLATEAU

CITY           SKY/WX    TMP DP  RH WIND       PRES   REMARKS
JUNCTION       MOSUNNY   81  66  60 S9        30.05F
*LLANO         MOSUNNY   82  68  61 S8        30.07F
BURNET         SUNNY     83  66  56 VRB7G17   30.07S
*HORSESHOE BAY MOSUNNY   85  66  52 S7        30.05S
*KERRVILLE     SUNNY     82  67  61 SE8       30.07F
*FREDERICKSBRG PTSUNNY   78  65  64 S8        30.07F
*ROCKSPRINGS   SUNNY     81  66  61 S12       30.10F
*BOERNE STAGE  MOSUNNY   79  63  57 S6        30.07S
*CASTROVILLE   MOSUNNY   84  65  51 S7        30.05F
HONDO          MOSUNNY   81  68  64 S7        30.06F
*UVALDE        MOSUNNY   81  69  68 S7        30.05S
DEL RIO        MOSUNNY   83  69  62 SE17G23   30.00F
LAUGHLIN AFB   NOT AVBL
CARRIZO SPRGS  SUNNY     84  70  61 SE8       30.01F
$$

TXZ173-191>194-202-209-217>225-228-021800-
CENTRAL AND SOUTH CENTRAL TEXAS

CITY           SKY/WX    TMP DP  RH WIND       PRES   REMARKS
GEORGETOWN     MOSUNNY   82  66  57 S3        30.03S
AUSTIN/BERGSTM MOSUNNY   85  66  53 S10       30.03S
AUSTIN/MABRY   MOSUNNY   83  67  58 SW3       30.04S
*AUSTIN/EXEC   MOSUNNY   84  68  58 S3        30.04F
*LAGO VISTA    PTSUNNY   84  65  51 SE7       30.06S
SAN MARCOS     SUNNY     84  64  51 S9        30.04S
NEW BRAUNFELS  MOSUNNY   85  65  51 S9        30.03S
RANDOLPH AFB   SUNNY     83  65  53 S8        30.04S
PT SAN ANTONIO MOSUNNY   84  68  58 S5        30.03S
SAN ANTONIO    MOSUNNY   84  65  52 SE12      30.04F
STINSON FIELD  MOSUNNY   84  66  54 SE7       30.02F
*PLEASANTON    SUNNY     83  67  58 SE3       30.04F
*LA GRANGE     MOSUNNY   84  71  63 S6        30.02S
*GIDDINGS      SUNNY     83  67  58 CALM      30.07S
*GONZALES      SUNNY     85  69  60 S6        30.03F
$$

TXZ163>164-176>182-195>201-210>213-226-227-235-021800-
SOUTHEAST TEXAS

CITY           SKY/WX    TMP DP  RH WIND       PRES   REMARKS
COLLEGE STN    MOSUNNY   84  67  56 CALM      30.03F
*BRYAN         SUNNY     82  67  60 CALM      30.05F
*CALDWELL      MOSUNNY   82  68  61 S5        30.06F
*CROCKETT      NOT AVBL
*BRENHAM       SUNNY     85  67  54 SW6       30.04S
HUNTSVILLE     SUNNY     84  65  52 VRB3      30.04F
CONROE         MOSUNNY   83  62  49 W5        30.04F
HOUSTON BUSH   MOSUNNY   84  67  56 N6        30.02F
HOUSTON HOBBY  MOSUNNY   85  66  53 N3        30.02S
*HOUSTON SW AP PTSUNNY   82  66  57 CALM      30.02F
PEARLAND       MOSUNNY   85  64  49 VRB3      30.03F
HOUSTON HOOKS  SUNNY     85  67  54 VRB3      30.03F
ELLINGTON FLD  PTSUNNY   90  63  40 CALM      30.03F HX  90
SUGAR LAND     MOSUNNY   84  65  52 VRB3      30.02F
*HOUSTON EXEC  MOSUNNY   82  68  61 SW5       30.04F
*CLEVELAND MUN MOSUNNY   82  67  60 E3        30.05S
*WHARTON       MOSUNNY   83  69  62 CALM      30.04S
*COLUMBUS      FAIR      82  71  67 SW3       30.03F
$$

TXZ214>216-236>238-021800-
THE UPPER TEXAS COAST

CITY           SKY/WX    TMP DP  RH WIND       PRES   REMARKS
*ORANGE        MOSUNNY   82  59  45 CALM      30.04S
PORT ARTHUR    MOSUNNY   87  63  44 N6        30.02S
GALVESTON      MOSUNNY   85  69  58 N3        30.04S
ANGLETON       PTSUNNY   87  66  49 VRB6      30.02F
*BAY CITY      MOSUNNY   84  69  59 CALM      30.03S
PALACIOS       PTSUNNY   83  69  62 S6        30.02F
$$

TXZ229>234-239>247-021800-
TEXAS COASTAL BEND AND RIO GRANDE PLAINS

CITY           SKY/WX    TMP DP  RH WIND       PRES   REMARKS
VICTORIA       MOSUNNY   84  69  60 SE6       30.03F
*BEEVILLE      MOSUNNY   83  70  64 S6        30.03F
ROCKPORT       SUNNY     86  67  52 SE10      30.02S
*PORT ARANSAS  SUNNY     83  70  64 SE6       30.02S
*PORT LAVACA   SUNNY     84  71  64 E6        30.03S
*INGLESIDE     SUNNY     86  67  52 SE8       30.02S
CORPUS CHRISTI PTSUNNY   84  70  62 S8        30.02S
CORPUS NAS     MOSUNNY   85  72  65 SE10      30.02S HX  91
*ROBSTOWN      SUNNY     85  72  63 SW3       30.02F HX  91
ALICE          MOSUNNY   85  69  58 VRB5      30.01F
KINGSVILLE NAS MOSUNNY   87  73  62 VRB6      30.01F HX  94
COTULLA        SUNNY     85  66  53 SE9       30.03F
*FAITH RANCH     N/A     86  70  58 SE8G16    30.01F HX  90
LAREDO         SUNNY     86  68  54 SE10      30.04S
$$

TXZ248>255-021800-
DEEP SOUTH TEXAS

CITY           SKY/WX    TMP DP  RH WIND       PRES   REMARKS
BROWNSVILLE    MOSUNNY   87  70  56 MISG      30.00S HX  92
PORT ISABEL    SUNNY     85  72  65 E9        30.00S HX  91
*SOUTH PADRE   SUNNY    -24 -24 100 S7        30.01S WCI -42
HARLINGEN      PTSUNNY   88  71  57 VRB6      29.99F HX  94
*HEBBRONVILLE    N/A     82  66  58 E7        30.04F
MCALLEN        MOSUNNY   89  70  53 E10       30.01F HX  94
*WESLACO       PTSUNNY   84  70  61 S8        30.00F
FALFURRIAS     PTSUNNY   84  69  60 CALM      30.01S
EDINBURG       MOSUNNY   85  69  58 SE7       30.01F
*ZAPATA        MOSUNNY   84  68  59 S7        30.02S
$$

TXZ213>215-236>238-242>244-246-247-251-254-255-021800-
CMAN STATIONS

STATION/POSITION TIME  TEMP    WIND        PRES    WAVE
                       AIR SEA DIR/SP/G            HT/PER
                 (UTC) (F)     (DEG/KT/KT) (MB)    (FT/S)
$$

GMZ080-GMZ150>470-021800-
OFFSHORE BUOY REPORTS

STATION/POSITION TIME  TEMP    WIND        PRES    WAVE
                       AIR SEA DIR/SP/G            HT/PER
                 (UTC) (F)     (DEG/KT/KT) (MB)    (FT/S)
$$


USA.gov is the U.S. government's official web portal to all federal, state and local government web resources and services.